Weather History for Muskogee, OK

Change the Weather History Date:

Sunday, January 6, 2013

  Actual Average Record
Temperature  
Mean Temperature 36 °F -  
Max Temperature 48 °F 46 °F 73 °F (2008)
Min Temperature 25 °F 27 °F 3 °F (2014)
Degree Days  
Heating Degree Days 28    
Moisture  
Dew Point 23 °F    
Average Humidity 65    
Maximum Humidity 96    
Minimum Humidity 34    
Precipitation  
Precipitation 0.00 in - - ()
Sea Level Pressure  
Sea Level Pressure 30.38 in    
Wind  
Wind Speed 7 mph (NW)    
Max Wind Speed 15 mph    
Max Gust Speed -    
Visibility 10 miles    
Events      
Averages and records for this station are not official NWS values.
T = Trace of Precipitation, MM = Missing Value Source: NWS Daily Summary

Daily Weather History Graph

Daily Weather History Graph

Search for Another Location

Airport:

Trip Planner

Search our weather history database for the weather conditions in past years. The results will help you decide how hot, cold, wet, or windy it might be!

Date:

Astronomy

Jan. 06, 2013 Rise Set
Actual Time 7:31 AM CST 5:23 PM CST
Civil Twilight 7:03 AM CST 5:51 PM CST
Nautical Twilight 6:31 AM CST 6:23 PM CST
Astronomical Twilight 6:00 AM CST 6:54 PM CST
Moon 1:51 AM CST (1/6) 12:47 PM CST (1/6)
Length of Visible Light 10h 48m
Length of Day
9h 51m
Waning Crescent, 33% of the Moon is Illuminated
Jan 6
Waning Crescent
Jan 11
New
Jan 18
First Quarter
Jan 26
Full
Feb 3
Last Quarter

Hourly Weather History & Observations

Time (CST) Temp. Windchill Dew Point Humidity Pressure Visibility Wind Dir Wind Speed Gust Speed Precip Events Conditions
12:53 AM 30.9 °F 25.2 °F 30.0 °F 96% 30.31 in 9.0 mi WSW 5.8 mph - N/A   Clear
1:53 AM 32.0 °F 24.8 °F 30.9 °F 96% 30.32 in 10.0 mi West 8.1 mph - N/A   Clear
2:53 AM 28.9 °F 22.8 °F 27.0 °F 92% 30.33 in 10.0 mi West 5.8 mph - N/A   Clear
3:53 AM 28.0 °F 20.8 °F 26.1 °F 92% 30.34 in 10.0 mi WNW 6.9 mph - N/A   Clear
4:53 AM 28.9 °F 25.2 °F 25.0 °F 85% 30.34 in 10.0 mi West 3.5 mph - N/A   Clear
5:53 AM 28.0 °F - 24.1 °F 85% 30.36 in 10.0 mi Calm Calm - N/A   Clear
6:53 AM 27.0 °F 20.5 °F 21.9 °F 81% 30.39 in 10.0 mi NNW 5.8 mph - N/A   Clear
7:53 AM 28.0 °F 20.0 °F 23.0 °F 81% 30.40 in 10.0 mi NNW 8.1 mph - N/A   Clear
8:53 AM 32.0 °F 24.8 °F 25.0 °F 75% 30.42 in 10.0 mi NNW 8.1 mph - N/A   Clear
9:53 AM 37.0 °F 28.1 °F 25.0 °F 62% 30.43 in 10.0 mi NNW 15.0 mph - N/A   Clear
10:53 AM 39.0 °F 31.8 °F 24.1 °F 55% 30.44 in 10.0 mi North 11.5 mph - N/A   Clear
11:53 AM 42.1 °F 35.7 °F 21.9 °F 45% 30.42 in 10.0 mi North 11.5 mph - N/A   Clear
12:53 PM 45.0 °F 38.9 °F 21.9 °F 40% 30.40 in 10.0 mi NNW 12.7 mph - N/A   Clear
1:53 PM 46.9 °F - 21.9 °F 37% 30.38 in 10.0 mi North 6.9 mph - N/A   Clear
2:53 PM 48.0 °F - 21.0 °F 34% 30.38 in 10.0 mi North 10.4 mph - N/A   Clear
3:53 PM 46.9 °F - 21.0 °F 36% 30.38 in 10.0 mi NNW 8.1 mph - N/A   Clear
4:53 PM 45.0 °F 41.8 °F 21.0 °F 39% 30.38 in 10.0 mi North 5.8 mph - N/A   Clear
5:53 PM 42.1 °F 40.2 °F 21.0 °F 43% 30.38 in 10.0 mi NNW 3.5 mph - N/A   Clear
6:53 PM 39.0 °F 35.7 °F 19.9 °F 46% 30.38 in 10.0 mi NW 4.6 mph - N/A   Clear
7:53 PM 35.1 °F 30.1 °F 21.0 °F 57% 30.38 in 10.0 mi NNW 5.8 mph - N/A   Clear
8:53 PM 33.1 °F - 21.0 °F 61% 30.38 in 10.0 mi Calm Calm - N/A   Clear
9:53 PM 30.9 °F 25.2 °F 21.0 °F 67% 30.39 in 10.0 mi ENE 5.8 mph - N/A   Clear
10:53 PM 25.0 °F - 19.9 °F 81% 30.39 in 10.0 mi Calm Calm - N/A   Clear
11:53 PM 27.0 °F 20.5 °F 21.0 °F 78% 30.39 in 10.0 mi South 5.8 mph - N/A   Clear